TimeEST,TemperatureF,Dew PointF,Humidity,Sea Level PressureIn,VisibilityMPH,Wind Direction,Wind SpeedMPH,Gust SpeedMPH,PrecipitationIn,Events,Conditions,WindDirDegrees,DateUTC
12:52 AM,41.0,30.0,65,30.21,10.0,SSE,4.6,-,N/A,,Overcast,160,2013-01-06 05:52:00
1:52 AM,41.0,30.9,67,30.21,10.0,SSE,3.5,-,N/A,,Overcast,160,2013-01-06 06:52:00
2:52 AM,41.0,30.9,67,30.18,10.0,SSE,5.8,-,0.00,,Overcast,160,2013-01-06 07:52:00
3:52 AM,41.0,30.9,67,30.15,10.0,SSE,6.9,-,0.00,,Overcast,150,2013-01-06 08:52:00
4:52 AM,41.0,30.9,67,30.14,10.0,South,6.9,-,N/A,,Overcast,190,2013-01-06 09:52:00
5:52 AM,41.0,30.9,67,30.13,10.0,Calm,Calm,-,N/A,,Overcast,0,2013-01-06 10:52:00
6:03 AM,41.0,30.2,65,30.14,10.0,SSW,3.5,-,N/A,,Overcast,210,2013-01-06 11:03:00
6:52 AM,37.9,30.9,76,30.14,10.0,WSW,3.5,-,N/A,,Overcast,240,2013-01-06 11:52:00
7:52 AM,35.1,30.0,82,30.15,10.0,Calm,Calm,-,N/A,,Mostly Cloudy,0,2013-01-06 12:52:00
8:52 AM,41.0,32.0,70,30.15,10.0,Calm,Calm,-,N/A,,Mostly Cloudy,0,2013-01-06 13:52:00
9:52 AM,45.0,33.1,63,30.16,10.0,WSW,5.8,-,N/A,,Mostly Cloudy,250,2013-01-06 14:52:00
10:52 AM,46.9,30.0,52,30.14,10.0,NW,3.5,-,N/A,,Mostly Cloudy,310,2013-01-06 15:52:00
11:52 AM,48.0,28.9,48,30.11,10.0,WNW,3.5,-,N/A,,Mostly Cloudy,300,2013-01-06 16:52:00
12:52 PM,48.0,25.0,41,30.08,10.0,East,5.8,-,N/A,,Scattered Clouds,90,2013-01-06 17:52:00
1:52 PM,48.9,26.1,41,30.06,10.0,East,5.8,-,N/A,,Scattered Clouds,90,2013-01-06 18:52:00
2:52 PM,48.0,27.0,44,30.06,10.0,ESE,3.5,-,N/A,,Scattered Clouds,120,2013-01-06 19:52:00
3:52 PM,46.9,27.0,46,30.05,10.0,SE,5.8,-,N/A,,Mostly Cloudy,140,2013-01-06 20:52:00
4:52 PM,45.0,26.1,48,30.05,10.0,South,3.5,-,N/A,,Scattered Clouds,170,2013-01-06 21:52:00
5:52 PM,37.9,27.0,65,30.06,10.0,Calm,Calm,-,N/A,,Mostly Cloudy,0,2013-01-06 22:52:00
6:52 PM,41.0,28.9,62,30.08,10.0,SSE,4.6,-,N/A,,Mostly Cloudy,160,2013-01-06 23:52:00
7:52 PM,41.0,30.0,65,30.08,10.0,SSW,3.5,-,N/A,,Overcast,210,2013-01-07 00:52:00
8:52 PM,42.1,30.0,62,30.09,10.0,SSW,3.5,-,N/A,,Overcast,210,2013-01-07 01:52:00
9:52 PM,42.1,28.0,58,30.11,10.0,West,3.5,-,N/A,,Overcast,270,2013-01-07 02:52:00
10:52 PM,43.0,30.9,62,30.13,10.0,WNW,9.2,-,N/A,,Overcast,290,2013-01-07 03:52:00
11:52 PM,42.1,28.0,58,30.14,10.0,SW,6.9,-,N/A,,Overcast,220,2013-01-07 04:52:00